CW2732 Weather Reports


time (UTC)temp
C
wind
direction
speed
KPH
gust
KPH
rain 1hr
cm
rain 24hr
cm
rain mn
cm
humidity
%
barometer
mb
20260507141354 20 97 9.7 27.4 0.00 0.00 0.00 66 1010.9
20260507140353 20 123 11.3 27.4 0.00 0.00 0.00 68 1010.9
20260507135335 20 71 9.7 27.4 0.00 0.00 0.00 67 1011.1
20260507134354 20 81 12.9 27.4 0.00 0.00 0.00 65 1011.2
20260507133332 20 62 12.9 27.4 0.00 0.00 0.00 64 1011.1
20260507132349 20 128 12.9 27.4 0.00 0.00 0.00 61 1011.2
20260507131339 21 130 8.0 27.4 0.00 0.00 0.00 60 1011.2
20260507130353 21 90 14.5 27.4 0.00 0.00 0.00 60 1011.4
20260507125336 21 66 16.1 27.4 0.00 0.00 0.00 59 1011.7
20260507124337 22 56 14.5 27.4 0.00 0.00 0.00 55 1011.6
20260507123335 22 44 11.3 27.4 0.00 0.00 0.00 59 1011.6
20260507122356 21 117 12.9 27.4 0.00 0.00 0.00 59 1011.7
20260507121345 21 88 12.9 27.4 0.00 0.00 0.00 59 1011.8
20260507120404 21 61 9.7 27.4 0.00 0.00 0.00 59 1012.0
20260507115333 21 73 14.5 27.4 0.00 0.00 0.00 59 1012.0
20260507114339 21 78 12.9 27.4 0.00 0.00 0.00 60 1012.0
20260507113356 20 90 9.7 27.4 0.00 0.00 0.00 62 1011.9
20260507112333 21 71 12.9 27.4 0.00 0.00 0.00 61 1012.1
20260507111413 21 331 8.0 27.4 0.00 0.00 0.00 60 1012.1
20260507110343 20 74 12.9 27.4 0.00 0.00 0.00 61 1012.2
20260507105334 20 56 11.3 27.4 0.00 0.00 0.00 63 1012.4
20260507104335 20 43 14.5 27.4 0.00 0.00 0.00 65 1012.5
20260507103338 20 62 11.3 27.4 0.00 0.00 0.00 66 1012.5
20260507102336 20 94 14.5 27.4 0.00 0.00 0.00 67 1012.5
20260507101352 20 90 9.7 25.7 0.00 0.00 0.00 66 1012.5
20260507100340 20 15 14.5 25.7 0.00 0.00 0.00 66 1012.6
20260507095333 20 80 8.0 24.1 0.00 0.00 0.00 68 1012.5
20260507094351 20 77 8.0 24.1 0.00 0.00 0.00 68 1012.6
20260507093338 20 44 12.9 22.5 0.00 0.00 0.00 68 1012.6
20260507092337 20 44 4.8 22.5 0.00 0.00 0.00 68 1012.7
20260507091335 20 78 12.9 22.5 0.00 0.00 0.00 67 1012.8
20260507090341 20 79 12.9 22.5 0.00 0.00 0.00 66 1012.6
20260507085329 20 76 12.9 20.9 0.00 0.00 0.00 68 1012.7
20260507084348 20 78 11.3 20.9 0.00 0.00 0.00 67 1012.8
20260507083344 19 74 9.7 20.9 0.00 0.00 0.00 68 1012.6
20260507082404 19 115 11.3 20.9 0.00 0.00 0.00 69 1012.5
20260507081334 19 48 6.4 20.9 0.00 0.00 0.00 67 1012.7
20260507080354 20 38 9.7 19.3 0.00 0.00 0.00 65 1012.7
20260507075347 20 39 9.7 19.3 0.00 0.00 0.00 64 1012.7
20260507074338 20 74 8.0 16.1 0.00 0.00 0.00 65 1012.3
20260507073352 20 60 6.4 16.1 0.00 0.00 0.00 64 1012.3
20260507072349 20 103 4.8 14.5 0.00 0.00 0.00 64 1012.2
20260507071337 20 21 4.8 14.5 0.00 0.00 0.00 64 1012.2
20260507070356 19 33 3.2 14.5 0.00 0.00 0.00 68 1012.0
20260507065347 18 320 3.2 14.5 0.00 0.00 0.00 70 1011.9
20260507064346 17 336 3.2 12.9 0.00 0.00 0.00 72 1012.1
20260507063345 17 330 3.2 12.9 0.00 0.00 0.00 74 1011.9
20260507062351 16 355 1.6 12.9 0.00 0.00 0.00 75 1011.9
20260507061349 16 340 4.8 12.9 0.00 0.00 0.00 76 1011.9
20260507060346 16 263 4.8 12.9 0.00 0.00 0.00 76 1011.9
20260507055352 16 332 3.2 12.9 0.00 0.00 0.00 77 1011.9
20260507054409 16 344 3.2 8.0 0.00 0.00 0.00 77 1012.1
20260507053346 16 318 3.2 9.7 0.00 0.00 0.00 79 1012.1
20260507052336 16 319 1.6 9.7 0.00 0.00 0.00 77 1012.0
20260507051336 16 344 1.6 8.0 0.00 0.00 0.00 77 1011.8
20260507050352 16 341 1.6 8.0 0.00 0.00 0.00 77 1011.7
20260507045336 16 268 4.8 12.9 0.00 0.00 0.00 77 1011.7
20260507044336 16 326 1.6 12.9 0.00 0.00 0.00 77 1011.7
20260507043352 16 325 1.6 4.8 0.00 0.00 0.00 78 1011.6
20260507042341 16 344 0.0 6.4 0.00 0.00 0.00 77 1011.7
20260507041339 16 322 1.6 6.4 0.00 0.00 0.00 77 1011.6
20260507040339 16 303 0.0 4.8 0.00 0.00 0.00 77 1011.5
20260507035353 16 327 1.6 4.8 0.00 0.00 0.00 77 1011.4
20260507034339 16 348 0.0 6.4 0.00 0.00 0.00 77 1011.4
20260507033336 16 15 0.0 3.2 0.00 0.00 0.00 78 1011.4
20260507032346 16 355 1.6 3.2 0.00 0.00 0.00 78 1011.5
20260507031346 16 355 0.0 0.0 0.00 0.00 0.00 78 1011.4
20260507030335 16 344 0.0 4.8 0.00 0.00 0.00 79 1011.6
20260507025416 16 333 0.0 3.2 0.00 0.00 0.00 79 1011.6
20260507024346 16 290 1.6 3.2 0.00 0.00 0.00 79 1011.7
20260507023406 16 5 0.0 3.2 0.00 0.00 0.00 78 1011.6
20260507022345 16 347 0.0 4.8 0.00 0.00 0.00 78 1011.8
20260507021331 16 323 3.2 6.4 0.00 0.00 0.00 78 1011.9
20260507020350 16 319 1.6 6.4 0.00 0.00 0.00 78 1012.0
20260507015331 16 94 1.6 8.0 0.00 0.00 0.00 78 1011.9
20260507014345 16 317 0.0 8.0 0.00 0.00 0.00 77 1012.1
20260507013345 16 310 1.6 12.9 0.00 0.00 0.00 77 1012.0
20260507012337 16 15 3.2 8.0 0.00 0.00 0.00 77 1011.9
20260507011355 16 355 3.2 8.0 0.00 0.00 0.00 77 1012.0
20260507010333 16 336 3.2 8.0 0.00 0.00 0.00 78 1012.0
20260507005401 16 310 0.0 4.8 0.00 0.00 0.00 78 1012.0
20260507004331 17 311 1.6 8.0 0.00 0.00 0.00 78 1012.0
20260507003356 17 315 3.2 8.0 0.00 0.00 0.00 78 1012.1
20260507002406 17 5 0.0 6.4 0.00 0.00 0.00 78 1012.1
20260507001344 17 22 3.2 6.4 0.00 0.00 0.00 78 1012.2
20260507000343 17 345 1.6 8.0 0.00 0.00 0.00 78 1012.3
20260506235335 17 323 1.6 11.3 0.00 0.00 0.00 78 1012.5
20260506234342 17 5 1.6 6.4 0.00 0.00 0.00 78 1012.7
20260506233342 17 21 1.6 8.0 0.00 0.00 0.00 78 1012.6
20260506232333 17 254 0.0 4.8 0.00 0.00 0.00 78 1012.6
20260506231333 17 348 1.6 8.0 0.00 0.00 0.00 78 1012.7
20260506230352 17 360 0.0 4.8 0.00 0.00 0.00 78 1012.6
20260506225334 17 360 3.2 8.0 0.00 0.00 0.00 78 1012.9
20260506224334 17 355 3.2 6.4 0.00 0.00 0.00 79 1012.7
20260506223350 17 5 1.6 6.4 0.00 0.00 0.00 79 1012.6
20260506222336 17 26 3.2 8.0 0.00 0.00 0.00 79 1012.5
20260506221335 17 355 0.0 4.8 0.00 0.00 0.00 79 1012.6
20260506220337 17 59 1.6 6.4 0.00 0.00 0.00 79 1012.7
20260506215349 17 25 1.6 4.8 0.00 0.00 0.00 79 1012.8
20260506214347 17 21 3.2 8.0 0.00 0.00 0.00 80 1012.8
20260506213406 17 25 3.2 6.4 0.00 0.00 0.00 80 1013.1
20260506212404 17 30 0.0 1.6 0.00 0.00 0.00 80 1013.2
20260506211332 17 17 1.6 4.8 0.00 0.00 0.00 80 1013.1
20260506210331 17 26 0.0 6.4 0.00 0.00 0.00 80 1013.0
20260506205356 17 84 1.6 4.8 0.00 0.00 0.00 80 1012.9
20260506204354 17 85 3.2 6.4 0.00 0.00 0.00 80 1012.8
20260506203347 17 78 3.2 6.4 0.00 0.00 0.00 79 1012.8
20260506202331 17 86 3.2 11.3 0.00 0.00 0.00 79 1012.7
20260506201345 17 80 1.6 6.4 0.00 0.00 0.00 79 1012.6
20260506200344 17 87 3.2 8.0 0.00 0.00 0.00 79 1012.5
20260506195357 17 69 3.2 9.7 0.00 0.00 0.00 78 1012.4
20260506194345 17 71 6.4 11.3 0.00 0.00 0.00 78 1012.1
20260506193359 17 51 4.8 12.9 0.00 0.00 0.00 78 1012.1
20260506192334 17 67 6.4 9.7 0.00 0.00 0.00 78 1012.0
20260506191336 17 102 6.4 14.5 0.00 0.00 0.00 78 1012.0
20260506190332 17 59 8.0 16.1 0.00 0.00 0.00 77 1012.0
20260506185338 18 87 6.4 16.1 0.00 0.00 0.00 76 1011.8
20260506184358 18 83 6.4 14.5 0.00 0.00 0.00 76 1011.7
20260506183418 18 78 6.4 14.5 0.00 0.00 0.00 76 1011.7
20260506182404 18 94 12.9 19.3 0.00 0.00 0.00 75 1011.6
20260506181343 18 88 11.3 19.3 0.00 0.00 0.00 75 1011.6
20260506180340 18 76 12.9 24.1 0.00 0.00 0.00 74 1011.5
20260506175354 18 78 12.9 24.1 0.00 0.00 0.00 73 1011.6
20260506174346 18 96 11.3 30.6 0.00 0.00 0.00 74 1011.4
20260506173344 18 98 11.3 30.6 0.00 0.00 0.00 73 1011.6
20260506172334 18 132 9.7 30.6 0.00 0.00 0.00 73 1011.6
20260506171332 18 78 11.3 30.6 0.00 0.00 0.00 74 1011.5
20260506170341 19 63 8.0 30.6 0.00 0.00 0.00 73 1011.2
20260506165334 19 79 9.7 30.6 0.00 0.00 0.00 73 1011.4
20260506164348 19 96 9.7 30.6 0.00 0.00 0.00 72 1011.3
20260506163343 19 74 12.9 30.6 0.00 0.00 0.00 71 1011.3
20260506162334 19 87 14.5 30.6 0.00 0.00 0.00 70 1011.3
20260506161333 20 58 14.5 30.6 0.00 0.00 0.00 69 1011.3
20260506160352 20 43 16.1 30.6 0.00 0.00 0.00 68 1011.3
20260506155336 20 86 17.7 30.6 0.00 0.00 0.00 67 1011.0
20260506154336 20 136 11.3 30.6 0.00 0.00 0.00 66 1011.0
20260506153346 20 118 17.7 30.6 0.00 0.00 0.00 66 1011.1
20260506152334 20 94 14.5 30.6 0.00 0.00 0.00 65 1011.0
20260506151348 20 44 14.5 30.6 0.00 0.00 0.00 66 1011.2
20260506150403 20 45 14.5 30.6 0.00 0.00 0.00 66 1011.1
20260506145354 21 79 12.9 30.6 0.00 0.00 0.00 65 1011.3
20260506144345 21 51 14.5 30.6 0.00 0.00 0.00 65 1011.3
20260506143337 21 95 16.1 30.6 0.00 0.00 0.00 65 1011.6
20260506142356 21 98 14.5 30.6 0.00 0.00 0.00 65 1011.7